Weather reports worldwide

Advertisment
Idar-Oberstein, Germany (10618): temperature & dewpoint: 08.11.2018 13:00:00 - 14.11.2018 13:00:00 (CET)Idar-Oberstein, Germany (10618): wind speed & gusts: 08.11.2018 13:00:00 - 14.11.2018 13:00:00 (CET)Idar-Oberstein, Germany (10618): wind direction: 08.11.2018 13:00:00 - 14.11.2018 13:00:00 (CET)Idar-Oberstein, Germany (10618): reduced air pressure: 08.11.2018 13:00:00 - 14.11.2018 13:00:00 (CET)Idar-Oberstein, Germany (10618): visibility: 08.11.2018 13:00:00 - 14.11.2018 13:00:00 (CET)
Date & Time tt [°C] td [°C] ff [km/h] ff [kn] fx [km/h] fx [kn] dd ppp [hPa] vv [km]
14.11.2018 13:00:00 4,3 4,3 11 6 - - ENE 1030,1 0,1
14.11.2018 12:00:00 3,6 3,6 7 4 - - ENE 1030,7 0,1
14.11.2018 11:00:00 3,2 3,2 4 2 - - NE 1031,3 0,1
14.11.2018 10:00:00 2,8 2,8 4 2 - - E 1031,5 0,1
14.11.2018 09:00:00 1,6 1,6 7 4 - - SW 1031,7 0,1
14.11.2018 08:00:00 1,5 1,5 4 2 - - S 1031,7 0,1
14.11.2018 07:00:00 1,3 1,3 7 4 - - SW 1031,9 0,1
14.11.2018 06:00:00 1,5 1,4 4 2 - - N 1032,1 0,2
14.11.2018 05:00:00 1,5 1,5 4 2 - - SW 1032,2 0,1
14.11.2018 04:00:00 1,6 1,5 7 4 - - SW 1032,4 0,1
14.11.2018 03:00:00 2,0 1,9 7 4 - - SW 1032,8 0,1
14.11.2018 02:00:00 2,0 1,9 7 4 - - SW 1032,8 0,1
14.11.2018 01:00:00 2,6 2,4 4 2 - - N 1032,6 0,6
14.11.2018 00:00:00 3,9 3,8 4 2 - - N 1032,3 8
13.11.2018 23:00:00 4,9 4,5 4 2 - - N 1032,0 15
13.11.2018 22:00:00 5,5 5,1 7 4 - - N 1031,9 15
13.11.2018 21:00:00 6,6 5,4 7 4 - - SSW 1031,4 20
13.11.2018 20:00:00 7,4 5,6 14 8 - - SSW 1030,8 20
13.11.2018 19:00:00 7,2 6,0 11 6 - - SSW 1030,7 30
13.11.2018 18:00:00 8,3 6,3 11 6 - - SW 1029,8 30
13.11.2018 17:00:00 - - - - - - - - -
13.11.2018 16:00:00 10,2 6,7 18 10 - - SW 1028,1 30
13.11.2018 15:00:00 10,6 7,1 18 10 - - SW 1027,7 30
13.11.2018 14:00:00 10,2 7,5 18 10 - - SW 1027,5 30
13.11.2018 13:00:00 9,3 7,9 14 8 - - SW 1027,3 15
13.11.2018 12:00:00 9,5 8,3 18 10 - - SW 1026,8 15
13.11.2018 11:00:00 9,5 8,4 14 8 - - SW 1026,7 15
13.11.2018 10:00:00 9,1 8,2 14 8 - - SSW 1026,0 20
13.11.2018 09:00:00 8,9 8,4 11 6 - - SW 1025,4 8
13.11.2018 08:00:00 9,4 8,3 18 10 - - SSW 1024,2 8
13.11.2018 07:00:00 9,6 8,6 11 6 - - SSW 1023,0 10
13.11.2018 06:00:00 9,9 9,2 11 6 - - S 1022,6 6
13.11.2018 05:00:00 9,8 9,3 11 6 - - SW 1022,5 10
13.11.2018 04:00:00 9,8 9,4 11 6 - - SSW 1022,0 10
13.11.2018 03:00:00 10,3 9,7 14 8 - - SSW 1021,6 10
13.11.2018 02:00:00 10,5 9,9 7 4 - - SSW 1021,1 15
13.11.2018 01:00:00 10,9 10,3 11 6 - - SSW 1020,4 12
13.11.2018 00:00:00 11,1 10,6 11 6 - - SSW 1020,2 12
12.11.2018 23:00:00 11,4 10,9 11 6 - - SSW 1019,9 10
12.11.2018 22:00:00 12,1 11,6 11 6 - - SW 1019,0 10
12.11.2018 21:00:00 12,3 11,8 11 6 - - SW 1018,6 8
12.11.2018 20:00:00 12,9 12,2 14 8 - - SSW 1018,5 15
12.11.2018 19:00:00 13,1 12,2 11 6 - - SSW 1017,8 10
12.11.2018 18:00:00 13,1 12,5 11 6 - - SSW 1017,4 10
12.11.2018 17:00:00 12,9 12,3 14 8 65 35 SSW 1016,8 15
12.11.2018 16:00:00 16,9 11,0 11 6 - - SSW 1014,8 50
12.11.2018 15:00:00 17,4 10,7 18 10 - - SSW 1014,4 50
12.11.2018 14:00:00 17,8 10,6 18 10 - - SSW 1014,1 50
12.11.2018 13:00:00 16,6 10,0 14 8 - - SSW 1014,3 50
12.11.2018 12:00:00 15,8 9,6 18 10 - - SW 1014,7 40
12.11.2018 11:00:00 14,8 9,3 7 4 - - SSW 1014,7 40
12.11.2018 10:00:00 13,3 8,9 4 2 - - SSW 1014,7 40
12.11.2018 09:00:00 11,9 9,5 7 4 - - N 1014,6 40
12.11.2018 08:00:00 9,9 9,7 4 2 - - SW 1014,6 35
12.11.2018 07:00:00 9,1 9,1 4 2 - - N 1014,1 25
12.11.2018 06:00:00 9,0 9,0 4 2 - - NNW 1013,9 0,2
12.11.2018 05:00:00 9,0 9,0 4 2 - - NE 1014,0 0,3
12.11.2018 04:00:00 8,9 8,8 4 2 - - E 1014,3 0,3
12.11.2018 03:00:00 9,1 9,0 4 2 - - N 1014,4 0,5
12.11.2018 02:00:00 9,4 9,3 4 2 - - NE 1014,7 8
12.11.2018 01:00:00 9,9 9,6 7 4 - - ENE 1014,6 15
12.11.2018 00:00:00 10,8 10,3 7 4 - - ESE 1014,3 20
11.11.2018 23:00:00 12,2 10,6 7 4 - - N 1014,1 25
11.11.2018 22:00:00 11,9 10,1 11 6 - - SW 1013,5 25
11.11.2018 21:00:00 11,8 9,9 7 4 - - SW 1012,3 25
11.11.2018 20:00:00 10,7 8,6 4 2 - - WNW 1012,4 25
11.11.2018 19:00:00 11,4 8,8 7 4 - - N 1011,4 30
11.11.2018 18:00:00 11,9 8,4 7 4 - - S 1011,5 30
11.11.2018 17:00:00 12,9 7,6 4 2 - - S 1011,0 40
11.11.2018 16:00:00 13,3 7,6 7 4 - - S 1010,5 40
11.11.2018 15:00:00 14,3 7,9 14 8 - - SSW 1010,4 40
11.11.2018 14:00:00 12,9 8,4 18 10 - - SW 1011,0 30
11.11.2018 13:00:00 12,5 8,4 25 14 - - SW 1011,1 30
11.11.2018 12:00:00 11,9 8,5 18 10 - - SSW 1010,6 30
11.11.2018 11:00:00 11,2 8,6 14 8 - - SSW 1010,6 30
11.11.2018 10:00:00 10,1 8,2 14 8 - - SSW 1010,8 25
11.11.2018 09:00:00 9,6 8,1 18 10 - - SSW 1010,3 25
11.11.2018 08:00:00 9,4 8,2 11 6 - - S 1009,2 25
11.11.2018 07:00:00 9,4 8,4 11 6 - - SSW 1008,8 18
11.11.2018 06:00:00 9,7 8,6 11 6 - - S 1008,2 9
11.11.2018 05:00:00 10,1 9,0 14 8 - - S 1008,0 9
11.11.2018 04:00:00 10,3 9,2 11 6 - - SSW 1008,1 9
11.11.2018 03:00:00 10,4 9,0 18 10 - - SSW 1008,1 15
11.11.2018 02:00:00 9,9 8,9 14 8 - - SSW 1008,3 7
11.11.2018 01:00:00 10,3 9,3 14 8 - - SSW 1007,8 6
11.11.2018 00:00:00 10,0 8,9 11 6 - - S 1007,7 6
10.11.2018 23:00:00 10,6 9,8 14 8 - - SW 1007,5 6
10.11.2018 22:00:00 10,8 10,4 11 6 - - WSW 1006,9 3,0
10.11.2018 21:00:00 11,1 10,4 14 8 - - SW 1006,9 6
10.11.2018 20:00:00 11,4 10,3 14 8 - - S 1006,5 3,0
10.11.2018 19:00:00 11,7 10,6 11 6 - - S 1006,3 6
10.11.2018 18:00:00 11,8 10,5 14 8 - - S 1006,3 6
10.11.2018 17:00:00 11,8 10,2 14 8 - - S 1006,4 15
10.11.2018 16:00:00 11,8 10,5 14 8 - - SSW 1006,7 9
10.11.2018 15:00:00 11,8 10,6 14 8 - - S 1006,5 9
10.11.2018 14:00:00 11,9 10,4 18 10 - - S 1006,6 9
10.11.2018 13:00:00 12,4 10,7 14 8 - - SSW 1006,9 9
10.11.2018 12:00:00 12,2 10,4 14 8 - - SSW 1007,4 12
10.11.2018 11:00:00 12,0 10,3 11 6 - - SSW 1007,7 12
10.11.2018 10:00:00 11,6 10,0 7 4 - - S 1007,8 12
10.11.2018 09:00:00 11,5 9,2 11 6 - - S 1007,6 12
10.11.2018 08:00:00 12,4 8,1 14 8 - - SSW 1007,1 12
10.11.2018 07:00:00 8,2 7,4 11 6 - - ENE 1007,7 5
10.11.2018 06:00:00 8,4 7,5 4 2 - - NNE 1007,7 5
10.11.2018 05:00:00 8,1 7,2 4 2 - - N 1008,3 5
10.11.2018 04:00:00 8,1 7,1 4 2 - - N 1008,7 5
10.11.2018 03:00:00 7,8 6,9 11 6 - - NE 1009,4 6
10.11.2018 02:00:00 8,0 6,5 4 2 - - WSW 1009,9 15
10.11.2018 01:00:00 8,3 7,1 4 2 - - SSE 1010,6 15
10.11.2018 00:00:00 8,9 6,8 4 2 - - NNE 1011,1 15
09.11.2018 23:00:00 8,7 6,8 7 4 - - NW 1011,7 20
09.11.2018 22:00:00 10,6 6,7 7 4 - - SSE 1011,7 20
09.11.2018 21:00:00 11,2 6,8 7 4 - - SE 1011,9 20
09.11.2018 20:00:00 11,4 7,4 7 4 - - SSE 1012,4 20
09.11.2018 19:00:00 11,8 7,9 4 2 - - SSE 1012,9 30
09.11.2018 18:00:00 12,6 7,8 7 4 - - SSE 1012,8 30
09.11.2018 17:00:00 12,7 7,9 4 2 - - N 1012,9 30
09.11.2018 16:00:00 13,0 8,0 7 4 - - S 1012,9 30
09.11.2018 15:00:00 14,2 7,7 11 6 - - SSW 1013,1 25
09.11.2018 14:00:00 10,2 7,8 4 2 - - NNW 1014,6 22
09.11.2018 13:00:00 8,7 7,7 4 2 - - N 1015,6 18
09.11.2018 12:00:00 7,3 7,1 4 2 - - W 1016,5 5
09.11.2018 11:00:00 6,4 6,4 4 2 - - W 1017,0 0,5
09.11.2018 10:00:00 5,8 5,7 7 4 - - NE 1017,3 0,8
09.11.2018 09:00:00 5,2 5,1 4 2 - - N 1017,3 0,1
09.11.2018 08:00:00 4,6 4,5 4 2 - - ESE 1017,4 0,1
09.11.2018 07:00:00 4,4 4,4 4 2 - - N 1016,9 0,3
09.11.2018 06:00:00 3,7 3,6 4 2 - - WSW 1017,2 1,5
09.11.2018 05:00:00 4,3 4,1 4 2 - - SE 1017,2 5
09.11.2018 04:00:00 5,0 4,8 4 2 - - SW 1017,1 6
09.11.2018 03:00:00 5,0 4,6 4 2 - - SW 1017,4 10
09.11.2018 02:00:00 6,1 5,4 4 2 - - N 1017,3 15
09.11.2018 01:00:00 6,9 5,7 7 4 - - ENE 1017,5 20
09.11.2018 00:00:00 6,2 4,9 4 2 - - NNE 1018,3 20
08.11.2018 23:00:00 6,3 4,9 7 4 - - NNE 1018,1 25
08.11.2018 22:00:00 5,9 4,6 4 2 - - S 1019,2 35
08.11.2018 21:00:00 6,0 4,7 4 2 - - NW 1019,6 35
08.11.2018 20:00:00 6,7 4,9 4 2 - - NNE 1020,3 40
08.11.2018 19:00:00 6,9 4,7 4 2 - - ESE 1020,4 40
08.11.2018 18:00:00 7,8 4,9 7 4 - - SE 1020,3 40
08.11.2018 17:00:00 10,0 4,6 7 4 - - E 1020,3 60
08.11.2018 16:00:00 10,8 4,4 7 4 - - E 1020,7 60
08.11.2018 15:00:00 11,3 3,1 4 2 - - ENE 1021,1 60
08.11.2018 14:00:00 11,4 2,9 4 2 - - N 1021,5 60
08.11.2018 13:00:00 11,3 4,8 4 2 - - WNW 1021,7 60

tt = temperature
td = dewpoint
ff = wind speed
fx = gusts
dd = wind direction
ppp = reduced air pressure
vv = visibility

Next stations